| time (UTC) | temp F | wind direction | speed MPH | gust MPH | rain 1hr in | rain 24hr in | rain mn in | humidity % | barometer mb |
| 20260504234549 | 65 | 0 | 0.0 | 0.0 | 0.00 | 0.00 | 0.00 | 44 | 998.7 |
| 20260504233055 | 66 | 0 | 0.0 | 0.0 | 0.00 | 0.00 | 0.00 | 44 | 998.4 |
| 20260504231550 | 67 | 0 | 0.0 | 0.0 | 0.00 | 0.00 | 0.00 | 43 | 998.3 |
| 20260504230059 | 67 | 0 | 0.0 | 0.0 | 0.00 | 0.00 | 0.00 | 43 | 998.1 |
| 20260504224549 | 68 | 0 | 0.0 | 0.0 | 0.00 | 0.00 | 0.00 | 41 | 997.9 |
| 20260504223058 | 69 | 0 | 0.0 | 0.0 | 0.00 | 0.00 | 0.00 | 39 | 997.9 |
| 20260504221552 | 69 | 0 | 0.0 | 0.0 | 0.00 | 0.00 | 0.00 | 40 | 997.9 |
| 20260504220049 | 70 | 0 | 0.0 | 0.0 | 0.00 | 0.00 | 0.00 | 37 | 998.1 |
| 20260504214606 | 70 | 0 | 0.0 | 0.0 | 0.00 | 0.00 | 0.00 | 36 | 998.3 |
| 20260504213058 | 70 | 0 | 0.0 | 0.0 | 0.00 | 0.00 | 0.00 | 37 | 998.3 |
| 20260504211553 | 70 | 0 | 0.0 | 0.0 | 0.00 | 0.00 | 0.00 | 37 | 998.4 |
| 20260504210055 | 70 | 0 | 0.0 | 6.0 | 0.00 | 0.00 | 0.00 | 38 | 998.4 |
| 20260504204552 | 70 | 0 | 0.0 | 0.0 | 0.00 | 0.00 | 0.00 | 35 | 998.4 |
| 20260504203103 | 70 | 0 | 0.0 | 0.0 | 0.00 | 0.00 | 0.00 | 34 | 998.7 |
| 20260504201613 | 69 | 0 | 0.0 | 4.0 | 0.00 | 0.00 | 0.00 | 35 | 998.6 |
| 20260504200051 | 69 | 196 | 1.0 | 4.0 | 0.00 | 0.00 | 0.00 | 37 | 998.6 |
| 20260504194600 | 69 | 156 | 2.0 | 9.0 | 0.00 | 0.00 | 0.00 | 34 | 998.9 |
| 20260504193109 | 70 | 154 | 4.0 | 11.0 | 0.00 | 0.00 | 0.00 | 34 | 998.9 |
| 20260504191601 | 69 | 195 | 3.0 | 12.0 | 0.00 | 0.00 | 0.00 | 35 | 998.9 |
| 20260504190113 | 69 | 160 | 2.0 | 11.0 | 0.00 | 0.00 | 0.00 | 37 | 998.9 |
| 20260504184608 | 68 | 156 | 2.0 | 9.0 | 0.00 | 0.00 | 0.00 | 36 | 999.1 |
| 20260504183054 | 70 | 164 | 2.0 | 8.0 | 0.00 | 0.00 | 0.00 | 36 | 999.1 |
| 20260504181556 | 68 | 0 | 2.0 | 8.0 | 0.00 | 0.00 | 0.00 | 37 | 999.4 |
| 20260504180059 | 68 | 189 | 3.0 | 11.0 | 0.00 | 0.00 | 0.00 | 36 | 999.5 |
| 20260504174551 | 67 | 234 | 3.0 | 12.0 | 0.00 | 0.00 | 0.00 | 35 | 999.7 |
| 20260504173051 | 67 | 182 | 3.0 | 8.0 | 0.00 | 0.00 | 0.00 | 36 | 999.7 |
| 20260504171608 | 66 | 222 | 2.0 | 9.0 | 0.00 | 0.00 | 0.00 | 37 | 1000.1 |
| 20260504160104 | 64 | 174 | 2.0 | 6.0 | 0.00 | 0.00 | 0.00 | 38 | 1000.8 |
| 20260504140106 | 59 | 157 | 4.0 | 8.0 | 0.00 | 0.00 | 0.00 | 45 | 1001.9 |
| 20260504120109 | 43 | 0 | 0.0 | 2.0 | 0.00 | 0.00 | 0.00 | 72 | 1003.1 |
| 20260504110114 | 39 | 0 | 0.0 | 1.0 | 0.00 | 0.00 | 0.00 | 78 | 1003.1 |
| 20260504081553 | 40 | 32 | 1.0 | 3.0 | 0.00 | 0.00 | 0.00 | 76 | 1002.3 |
| 20260504060104 | 42 | 0 | 0.0 | 0.0 | 0.00 | 0.00 | 0.00 | 68 | 1002.2 |
| 20260504044600 | 47 | 0 | 0.0 | 0.0 | 0.00 | 0.00 | 0.00 | 61 | 1002.3 |
| 20260504043053 | 48 | 0 | 0.0 | 0.0 | 0.00 | 0.00 | 0.00 | 59 | 1002.1 |
| 20260504041556 | 50 | 0 | 0.0 | 2.0 | 0.00 | 0.00 | 0.00 | 54 | 1002.1 |
| 20260504040052 | 51 | 0 | 0.0 | 4.0 | 0.00 | 0.00 | 0.00 | 49 | 1001.9 |
| 20260504034552 | 51 | 215 | 1.0 | 5.0 | 0.00 | 0.00 | 0.00 | 49 | 1001.9 |
| 20260504033101 | 49 | 209 | 1.0 | 4.0 | 0.00 | 0.00 | 0.00 | 51 | 1002.0 |
| 20260504031603 | 49 | 360 | 1.0 | 3.0 | 0.00 | 0.00 | 0.00 | 54 | 1002.0 |
| 20260504030055 | 50 | 277 | 1.0 | 2.0 | 0.00 | 0.00 | 0.00 | 51 | 1001.9 |
| 20260504024602 | 51 | 276 | 3.0 | 7.0 | 0.00 | 0.00 | 0.00 | 49 | 1001.9 |
| 20260504023054 | 50 | 277 | 2.0 | 4.0 | 0.00 | 0.00 | 0.00 | 50 | 1002.0 |
| 20260504021555 | 49 | 0 | 1.0 | 5.0 | 0.00 | 0.00 | 0.00 | 52 | 1001.9 |
| 20260504020052 | 48 | 0 | 0.0 | 0.0 | 0.00 | 0.00 | 0.00 | 52 | 1002.0 |
| 20260504014559 | 48 | 0 | 0.0 | 2.0 | 0.00 | 0.00 | 0.00 | 53 | 1001.9 |
| 20260504013104 | 49 | 0 | 0.0 | 3.0 | 0.00 | 0.00 | 0.00 | 53 | 1001.8 |
| 20260504011555 | 49 | 296 | 0.0 | 2.0 | 0.00 | 0.00 | 0.00 | 52 | 1001.9 |
| 20260504010057 | 49 | 0 | 1.0 | 2.0 | 0.00 | 0.00 | 0.00 | 52 | 1001.7 |
| 20260504004603 | 49 | 296 | 0.0 | 2.0 | 0.00 | 0.00 | 0.00 | 51 | 1001.6 |
| 20260504003054 | 50 | 0 | 0.0 | 0.0 | 0.00 | 0.00 | 0.00 | 50 | 1001.4 |
| 20260504001557 | 51 | 78 | 0.0 | 2.0 | 0.00 | 0.00 | 0.00 | 49 | 1001.0 |
| 20260504000053 | 52 | 327 | 0.0 | 2.0 | 0.00 | 0.00 | 0.00 | 46 | 1001.0 |